weather.gov     
National Weather Service

Regional Weather Roundup
NWS Homepage
This page is being discontinued on March 12, 2014.
The same data is available at this site. Please update your bookmarks.
Thank you, and we apologize for the inconvenience.
Please send an email to SR-SRH.Webmaster@noaa.gov with any concerns.


Current Version
Previous Version:    01  02  03  04  05  06  07  08  09  10  11  12  13  14  15  16  17  18  19  20  21  22  23  24  25  26  27  28  29  30  
   31  32  33  34  35  36  37  38  39  40  41  42  43  44  45  46  47  48  49  50  51  52  53  54  55  56  57  58  59  60  
[Printable]
975
ASUS44 KFWD 261815
RWRTX
NORTH TEXAS HOURLY WEATHER ROUNDUP
NATIONAL WEATHER SERVICE FORT WORTH TX
1200 PM CST MON JAN 26 2015

NOTE: "FAIR" INDICATES FEW OR NO CLOUDS BELOW 12,000 FEET WITH NO
SIGNIFICANT WEATHER AND/OR OBSTRUCTIONS TO VISIBILITY.

TXZ118-119-261900-
DALLAS/FORT WORTH METROPLEX

CITY           SKY/WX    TMP DP  RH WIND       PRES   REMARKS
DFW AIRPORT    MOSUNNY   59  32  36 SW8       30.19F
6HR MIN TEMP:  34; 6HR MAX TEMP:  59;

DALLAS LOVE    MOSUNNY   59  32  36 SW5       30.20F
6HR MIN TEMP:  36; 6HR MAX TEMP:  59;

FTW MEACHAM    SUNNY     62  36  37 SW8       30.19F
6HR MIN TEMP:  37; 6HR MAX TEMP:  62;

DAL-EXECUTIVE  SUNNY     62  30  29 W7        30.19F
6HR MIN TEMP:  36; 6HR MAX TEMP:  63;

FTW-ALLIANCE   MOSUNNY   62  34  35 SW7       30.19F
6HR MIN TEMP:  29; 6HR MAX TEMP:  62;

FTW-SPINKS     SUNNY     63  34  34 SW7       30.21F
ARLINGTON      SUNNY     63  31  30 SW8       30.20F
6HR MIN TEMP:  33; 6HR MAX TEMP:  63;

GRAND PRAIRIE  SUNNY     61  34  36 SW7       30.21F
ADDISON        SUNNY     57  28  33 S6        30.20F
MESQUITE       SUNNY     59  34  38 SW7       30.21F
LANCASTER      SUNNY     61  30  31 SW6       30.22F
6HR MIN TEMP:  33; 6HR MAX TEMP:  61;

$$

TXZ091>094-102>105-117-120-121-131>134-261900-
NORTH CENTRAL TEXAS

CITY           SKY/WX    TMP DP  RH WIND       PRES   REMARKS
SHRMAN/DENISON SUNNY     58  38  47 SW13      30.17F
6HR MIN TEMP:  33; 6HR MAX TEMP:  58;

GAINESVILLE    SUNNY     60  34  36 SW8       30.18F
6HR MIN TEMP:  31; 6HR MAX TEMP:  60;

BOWIE          SUNNY     63  36  37 W7        30.17F
6HR MIN TEMP:  30; 6HR MAX TEMP:  63;

BRIDGEPORT     SUNNY     64  41  42 W5        30.22F
6HR MIN TEMP:  30; 6HR MAX TEMP:  64;

DECATUR        SUNNY     59  34  39 W9        30.18F
6HR MIN TEMP:  40; 6HR MAX TEMP:  59;

DENTON         SUNNY     60  34  37 SW9       30.18F
6HR MIN TEMP:  30; 6HR MAX TEMP:  60;

MCKINNEY       SUNNY     60  31  33 SW9       30.18F
6HR MIN TEMP:  31; 6HR MAX TEMP:  60;

GREENVILLE     SUNNY     59  32  36 SW7       30.18F
ROCKWALL       SUNNY     57  33  40 SW7       30.19F
6HR MIN TEMP:  35; 6HR MAX TEMP:  57;

TERRELL        SUNNY     60  36  40 SW9       30.20F
6HR MIN TEMP:  32; 6HR MAX TEMP:  60;

WAXAHACHIE     SUNNY     59  36  42 SW8       30.23F
6HR MIN TEMP:  33; 6HR MAX TEMP:  59;

CLEBURNE       SUNNY     61  36  39 SW7       30.23F
GRANBURY       SUNNY     65  37  35 W8        30.23F
6HR MIN TEMP:  32; 6HR MAX TEMP:  65;

$$

TXZ083>090-098>101-113>116-127>130-139>142-154-155-261900-
WESTERN NORTH TEXAS

CITY           SKY/WX    TMP DP  RH WIND       PRES   REMARKS
WICHITA FALLS  SUNNY     61  38  42 W9        30.16F
6HR MIN TEMP:  33; 6HR MAX TEMP:  61;

WF-KICKAPOO    SUNNY    N/A N/A N/A SW7       30.19F
VERNON         SUNNY     68  28  22 W8        30.18F
6HR MIN TEMP:  31; 6HR MAX TEMP:  68;

ABILENE        SUNNY     67  31  26 W13       30.25F
6HR MIN TEMP:  33; 6HR MAX TEMP:  67;

ABILENE-DYESS  SUNNY     65  34  31 W16G22    30.24F
6HR MIN TEMP:  32; 6HR MAX TEMP:  65;

BRECKENRIDGE   SUNNY     67  32  27 W9        30.22F
6HR MIN TEMP:  36; 6HR MAX TEMP:  67;

GRAHAM         SUNNY     62  37  40 SW6       30.20F
6HR MIN TEMP:  30; 6HR MAX TEMP:  62;

MINERAL WELLS  SUNNY     61  37  41 SW7       30.20F
6HR MIN TEMP:  31; 6HR MAX TEMP:  61;

STEPHENVILLE   SUNNY     63  33  32 W10       30.26F
6HR MIN TEMP:  35; 6HR MAX TEMP:  63;

COMANCHE       SUNNY     67  33  28 W13       30.24F
6HR MIN TEMP:  39; 6HR MAX TEMP:  67;

BROWNWOOD      SUNNY     64  36  34 CALM      30.26F
COLEMAN        MOSUNNY   65  37  34 W14       30.27F
6HR MIN TEMP:  40; 6HR MAX TEMP:  65;

BRADY          SUNNY     66  34  30 NW12      30.26F
$$

TXZ143>147-156>162-174-175-261900-
CENTRAL TEXAS

CITY           SKY/WX    TMP DP  RH WIND       PRES   REMARKS
WACO           SUNNY     61  33  35 SW7       30.24F
6HR MIN TEMP:  30; 6HR MAX TEMP:  61;

WACO-MCGREGOR  SUNNY     63  39  42 W7        30.24F
6HR MIN TEMP:  34; 6HR MAX TEMP:  63;

HILLSBORO      SUNNY     60  35  39 SW9       30.22F
6HR MIN TEMP:  32; 6HR MAX TEMP:  60;

CORSICANA      SUNNY     60  32  34 SW9       30.23F
6HR MIN TEMP:  36; 6HR MAX TEMP:  60;

MEXIA          SUNNY     59  33  37 SW8       30.22F
6HR MIN TEMP:  38; 6HR MAX TEMP:  59;

HEARNE         SUNNY     58  35  41 SW6       30.27F
6HR MIN TEMP:  34; 6HR MAX TEMP:  58;

CAMERON        SUNNY     63  33  32 W5        30.24F
6HR MIN TEMP:  40; 6HR MAX TEMP:  63;

TEMPLE         SUNNY     64  36  34 W9        30.23F
6HR MIN TEMP:  36; 6HR MAX TEMP:  64;

KILLEEN        SUNNY     64  35  34 W14G20    30.24F
6HR MIN TEMP:  43; 6HR MAX TEMP:  64;

KILLEEN-SKYLRK SUNNY     66  36  32 W12       30.23S
6HR MIN TEMP:  43; 6HR MAX TEMP:  66;

FORT HOOD      SUNNY     66  34  29 MISG      30.23F
6HR MIN TEMP:  40; 6HR MAX TEMP:  66;

GATESVILLE     SUNNY     66  36  32 W9        30.25F
HAMILTON       SUNNY     67  32  27 W16       30.25F
6HR MIN TEMP:  37; 6HR MAX TEMP:  67;

LAMPASAS       MOSUNNY   65  34  31 NW7       30.25S
6HR MIN TEMP:  39; 6HR MAX TEMP:  65;

$$

TXZ095>097-106>112-122>126-135>138-148>153-164>167-261900-
EAST TEXAS

CITY           SKY/WX    TMP DP  RH WIND       PRES   REMARKS
PARIS          SUNNY     55  37  50 SW6       30.17F
6HR MIN TEMP:  34; 6HR MAX TEMP:  55;

SULPHUR SPRNGS SUNNY     59  34  39 W5        30.19F
6HR MIN TEMP:  37; 6HR MAX TEMP:  59;

MOUNT PLEASANT SUNNY     56  32  40 W6        30.19F
6HR MIN TEMP:  34; 6HR MAX TEMP:  56;

GILMER         SUNNY     55  33  42 NW3       30.18F
6HR MIN TEMP:  36; 6HR MAX TEMP:  55;

MINEOLA        SUNNY     57  30  35 W7        30.20F
TYLER          SUNNY     57  32  38 W7        30.19F
6HR MIN TEMP:  36; 6HR MAX TEMP:  58;

LONGVIEW       SUNNY     59  32  36 VRB5      30.17F
6HR MIN TEMP:  36; 6HR MAX TEMP:  59;

MARSHALL       SUNNY     56  34  42 NW5       30.19F
6HR MIN TEMP:  39; 6HR MAX TEMP:  56;

ATHENS         SUNNY     59  32  36 CALM      30.20F
PALESTINE      SUNNY     59  35  39 CALM      30.24F
HENDERSON      SUNNY     59  32  36 NE3       30.20F
6HR MIN TEMP:  37; 6HR MAX TEMP:  59;

NACOGDOCHES    SUNNY     61  34  36 N3        30.21F
6HR MIN TEMP:  34; 6HR MAX TEMP:  61;

LUFKIN         SUNNY     63  31  30 VRB7      30.21F
6HR MIN TEMP:  35; 6HR MAX TEMP:  63;

$$

SUPPLEMENTAL OBSERVATIONS (CENTRAL)

CITY           SKY/WX    TMP DP  RH WIND       PRES   REMARKS
LAKE TEXOMA      N/A     57  32  38 W12         N/A
PAT MAYSE LAKE   N/A     52  34  50 S5          N/A
GREENVILLE       N/A     59  34  38 SW12        N/A
CEDAR HILL       N/A     63  32  31 SW7         N/A
PALESTINE        N/A     64  34  32 SW1         N/A
LAKE LIMESTONE   N/A     61  32  33 W6          N/A
MCGREGOR         N/A     64  34  32 W8          N/A
TEMPLE           N/A     64  34  32 W7          N/A
$$

SUPPLEMENTAL OBSERVATIONS (WEST)

CITY           SKY/WX    TMP DP  RH WIND       PRES   REMARKS
MILLERS CREEK    N/A     61  39  44 SW12        N/A
POSSUM KINGDOM   N/A     64  32  29 W8          N/A




U.S. Dept. of Commerce
NOAA National Weather Service
1325 East West Highway
Silver Spring, MD 20910
E-mail: w-nws.webmaster@noaa.gov
Page last modified: May 16, 2007
NATIONAL WEATHER SERVICE: for Safety, for Work, for Fun - FOR LIFE